AUA2929 LOWW-EGCC

Flight info

Callsign AUA2929
Flight time N/A
Altitude 38000
Route BUWUT1C BUWUT DCT DITIS DCT OKG DCT VELIS DCT SWALM DCT TIVUN DCT DIBIR DCT GALSO Q63 ERING L179 LAM UN57 WELIN T420 ELVOS ELVOS1M
Aircraft A320/M-SDE3FGHIRWY/LB1

Departure

Time 2026-05-01 11:34
Airport Vienna International Airport (LOWW)

Arrival

Time N/A
Airport Manchester Airport (EGCC)
Time Latitude Longitude Altitude Speed Heading
2026-05-01 11:14 48.11897 16.56768 609 ft 0 kts 206°
2026-05-01 11:22 48.11908 16.56775 623 ft 4 kts 205°
2026-05-01 11:22 48.11933 16.56791 625 ft 4 kts 196°
2026-05-01 11:22 48.11958 16.56797 621 ft 4 kts 163°
2026-05-01 11:22 48.11971 16.56785 625 ft 0 kts 116°
2026-05-01 11:26 48.11959 16.56821 621 ft 7 kts 116°
2026-05-01 11:27 48.11940 16.56882 615 ft 9 kts 116°
2026-05-01 11:27 48.11904 16.56991 617 ft 12 kts 116°
2026-05-01 11:27 48.11869 16.57097 620 ft 11 kts 116°
2026-05-01 11:27 48.11855 16.57200 610 ft 10 kts 95°
2026-05-01 11:28 48.11831 16.57285 616 ft 9 kts 115°
2026-05-01 11:28 48.11807 16.57383 610 ft 10 kts 95°
2026-05-01 11:28 48.11789 16.57473 621 ft 9 kts 139°
2026-05-01 11:29 48.11626 16.57548 613 ft 28 kts 164°
2026-05-01 11:29 48.11427 16.57632 614 ft 31 kts 164°
2026-05-01 11:29 48.11010 16.57809 617 ft 30 kts 164°
2026-05-01 11:30 48.10875 16.57866 618 ft 31 kts 164°
2026-05-01 11:30 48.10598 16.57983 616 ft 30 kts 164°
2026-05-01 11:30 48.10408 16.58063 610 ft 28 kts 164°
2026-05-01 11:30 48.10222 16.58142 612 ft 28 kts 164°
2026-05-01 11:31 48.10034 16.58221 614 ft 28 kts 164°
2026-05-01 11:31 48.09845 16.58301 621 ft 29 kts 164°
2026-05-01 11:31 48.09646 16.58385 612 ft 31 kts 164°
2026-05-01 11:31 48.09436 16.58474 624 ft 32 kts 164°
2026-05-01 11:32 48.09229 16.58562 615 ft 31 kts 164°
2026-05-01 11:32 48.09055 16.58635 614 ft 24 kts 165°
2026-05-01 11:32 48.08914 16.58694 616 ft 19 kts 164°
2026-05-01 11:32 48.08812 16.58790 610 ft 17 kts 125°
2026-05-01 11:33 48.08793 16.58946 610 ft 15 kts 80°
2026-05-01 11:33 48.08847 16.59064 615 ft 13 kts 36°
2026-05-01 11:33 48.08936 16.59103 610 ft 14 kts 354°
2026-05-01 11:33 48.08976 16.59088 612 ft 3 kts 343°
2026-05-01 11:34 48.09173 16.59003 614 ft 67 kts 345°
2026-05-01 11:34 48.09840 16.58720 612 ft 130 kts 344°
2026-05-01 11:34 48.10869 16.58275 716 ft 169 kts 342°
2026-05-01 11:34 48.12047 16.57789 1323 ft 184 kts 346°
2026-05-01 11:35 48.13377 16.57561 1966 ft 202 kts
2026-05-01 11:35 48.14790 16.58290 2380 ft 228 kts 25°
2026-05-01 11:35 48.16243 16.59441 3200 ft 245 kts 28°
2026-05-01 11:35 48.17743 16.60722 4265 ft 249 kts 29°
2026-05-01 11:36 48.19252 16.62008 5309 ft 251 kts 30°
2026-05-01 11:36 48.20757 16.63382 6312 ft 254 kts 32°
2026-05-01 11:36 48.22285 16.64759 7265 ft 258 kts 26°
2026-05-01 11:36 48.24006 16.65449 8181 ft 264 kts
2026-05-01 11:37 48.25842 16.65075 9114 ft 272 kts 343°
2026-05-01 11:37 48.27542 16.63737 10050 ft 278 kts 334°
2026-05-01 11:37 48.29269 16.62206 10487 ft 300 kts 334°
2026-05-01 11:37 48.31125 16.60556 10941 ft 315 kts 333°
2026-05-01 11:38 48.33029 16.58853 11708 ft 321 kts 333°
2026-05-01 11:38 48.34962 16.57125 12511 ft 324 kts 333°
2026-05-01 11:38 48.36898 16.55401 13301 ft 328 kts 334°
2026-05-01 11:38 48.38884 16.53642 14111 ft 331 kts 334°
2026-05-01 11:39 48.40886 16.51870 14808 ft 335 kts 334°
2026-05-01 11:39 48.42909 16.50079 15507 ft 338 kts 334°
2026-05-01 11:39 48.44860 16.48108 16182 ft 346 kts 325°
2026-05-01 11:39 48.46558 16.45462 16856 ft 357 kts 312°
2026-05-01 11:40 48.47875 16.42213 17530 ft 367 kts 301°
2026-05-01 11:40 48.49008 16.38746 18181 ft 371 kts 301°
2026-05-01 11:40 48.50143 16.35278 18813 ft 375 kts 301°
2026-05-01 11:40 48.51309 16.31719 19380 ft 378 kts 301°
2026-05-01 11:41 48.52482 16.28138 19954 ft 382 kts 301°
2026-05-01 11:41 48.53663 16.24524 20540 ft 385 kts 302°
2026-05-01 11:41 48.54836 16.20925 21104 ft 389 kts 302°
2026-05-01 11:41 48.56038 16.17230 21679 ft 392 kts 302°
2026-05-01 11:42 48.57247 16.13516 22241 ft 395 kts 302°
2026-05-01 11:42 48.58431 16.09725 22811 ft 400 kts 300°
2026-05-01 11:42 48.59552 16.05905 23366 ft 404 kts 299°
2026-05-01 11:42 48.60661 16.01980 23928 ft 408 kts 298°
2026-05-01 11:43 48.61769 15.97993 24380 ft 412 kts 298°
2026-05-01 11:43 48.62882 15.93983 24845 ft 414 kts 299°
2026-05-01 11:43 48.63993 15.90011 25292 ft 417 kts 299°
2026-05-01 11:44 48.66294 15.81881 26161 ft 421 kts 300°
2026-05-01 11:44 48.67459 15.77791 26589 ft 424 kts 300°
2026-05-01 11:44 48.68233 15.75072 26856 ft 426 kts 300°
2026-05-01 11:44 48.69789 15.69589 27402 ft 429 kts 300°
2026-05-01 11:45 48.70964 15.65422 27802 ft 431 kts 299°
2026-05-01 11:45 48.72147 15.61221 28197 ft 433 kts 300°
2026-05-01 11:45 48.72937 15.58420 28464 ft 435 kts 300°
2026-05-01 11:45 48.74128 15.54188 28852 ft 437 kts 300°
2026-05-01 11:46 48.75323 15.49932 29238 ft 439 kts 300°
2026-05-01 11:46 48.76522 15.45657 29608 ft 442 kts 300°
2026-05-01 11:46 48.77722 15.41359 29967 ft 444 kts 299°
2026-05-01 11:46 48.78912 15.37087 30323 ft 446 kts 299°
2026-05-01 11:47 48.80119 15.32748 30637 ft 448 kts 299°
2026-05-01 11:47 48.81339 15.28366 30923 ft 450 kts 299°
2026-05-01 11:47 48.82567 15.23967 31204 ft 452 kts 299°
2026-05-01 11:47 48.83783 15.19614 31483 ft 454 kts 299°
2026-05-01 11:48 48.85022 15.15189 31740 ft 456 kts 299°
2026-05-01 11:48 48.86272 15.10739 31996 ft 457 kts 299°
2026-05-01 11:48 48.87521 15.06299 32349 ft 456 kts 299°
2026-05-01 11:48 48.88767 15.01870 32725 ft 455 kts 299°
2026-05-01 11:49 48.90011 14.97442 33085 ft 455 kts 299°
2026-05-01 11:49 48.91246 14.93052 33430 ft 454 kts 299°
2026-05-01 11:49 48.92488 14.88638 33780 ft 453 kts 299°
2026-05-01 11:49 48.93733 14.84217 34132 ft 453 kts 299°
2026-05-01 11:50 48.94974 14.79815 34473 ft 452 kts 299°
2026-05-01 11:50 48.96217 14.75410 34777 ft 452 kts 299°
2026-05-01 11:50 48.97448 14.71068 35081 ft 451 kts 299°
2026-05-01 11:50 48.98690 14.66702 35380 ft 449 kts 299°
2026-05-01 11:51 48.99939 14.62330 35668 ft 449 kts 299°
2026-05-01 11:51 49.01187 14.57974 35951 ft 448 kts 299°
2026-05-01 11:51 49.02440 14.53619 36226 ft 447 kts 299°
2026-05-01 11:51 49.03673 14.49345 36501 ft 446 kts 299°
2026-05-01 11:52 49.04928 14.45008 36770 ft 445 kts 299°
2026-05-01 11:52 49.06185 14.40684 37018 ft 444 kts 299°
2026-05-01 11:52 49.07442 14.36367 37263 ft 444 kts 299°
2026-05-01 11:52 49.08684 14.32116 37494 ft 443 kts 299°
2026-05-01 11:53 49.09940 14.27826 37729 ft 442 kts 299°
2026-05-01 11:53 49.11201 14.23537 37954 ft 441 kts 299°
2026-05-01 11:53 49.12463 14.19254 38188 ft 441 kts 299°
2026-05-01 11:53 49.13725 14.14985 38376 ft 441 kts 299°
2026-05-01 11:54 49.16242 14.06494 38419 ft 440 kts 299°
2026-05-01 11:54 49.18775 13.97973 38425 ft 439 kts 299°
2026-05-01 11:55 49.21314 13.89448 38419 ft 439 kts 299°
2026-05-01 11:55 49.23842 13.80972 38422 ft 439 kts 299°
2026-05-01 11:56 49.26388 13.72462 38417 ft 439 kts 299°
2026-05-01 11:56 49.28935 13.63983 38420 ft 439 kts 299°
2026-05-01 11:57 49.31491 13.55487 38419 ft 439 kts 299°
2026-05-01 11:57 49.34060 13.46982 38421 ft 439 kts 299°
2026-05-01 11:58 49.36630 13.38544 38407 ft 438 kts 299°
2026-05-01 11:59 49.40512 13.25877 38425 ft 438 kts 299°
2026-05-01 11:59 49.43116 13.17400 38429 ft 438 kts 299°
2026-05-01 12:00 49.47016 13.04731 38436 ft 437 kts 299°
2026-05-01 12:01 49.50920 12.92072 38434 ft 437 kts 299°
2026-05-01 12:01 49.53536 12.83607 38430 ft 436 kts 299°
2026-05-01 12:02 49.56139 12.75195 38429 ft 436 kts 299°
2026-05-01 12:02 49.58758 12.66742 38432 ft 436 kts 299°
2026-05-01 12:03 49.61376 12.58290 38421 ft 436 kts 299°
2026-05-01 12:03 49.63981 12.49885 38424 ft 436 kts 299°
2026-05-01 12:04 49.66607 12.41426 38429 ft 435 kts 298°
2026-05-01 12:04 49.69216 12.33063 38432 ft 435 kts 298°
2026-05-01 12:05 49.71856 12.24632 38424 ft 434 kts 298°
2026-05-01 12:05 49.75802 12.12065 38413 ft 434 kts 298°
2026-05-01 12:06 49.78446 12.03657 38422 ft 434 kts 298°
2026-05-01 12:06 49.81092 11.95264 38418 ft 433 kts 298°
2026-05-01 12:07 49.83721 11.86933 38423 ft 432 kts 298°
2026-05-01 12:07 49.86368 11.78546 38418 ft 432 kts 298°
2026-05-01 12:08 49.89015 11.70166 38422 ft 431 kts 298°
2026-05-01 12:08 49.91639 11.61863 38422 ft 430 kts 298°
2026-05-01 12:09 49.94278 11.53514 38420 ft 430 kts 298°
2026-05-01 12:09 49.96902 11.45221 38419 ft 429 kts 298°
2026-05-01 12:10 50.00853 11.32726 38400 ft 429 kts 298°
2026-05-01 12:11 50.04784 11.20275 38389 ft 428 kts 298°
2026-05-01 12:11 50.07417 11.11946 38392 ft 428 kts 298°
2026-05-01 12:12 50.10056 11.03614 38389 ft 429 kts 298°
2026-05-01 12:12 50.12703 10.95272 38386 ft 429 kts 298°
2026-05-01 12:13 50.15335 10.86990 38386 ft 429 kts 298°
2026-05-01 12:13 50.17989 10.78641 38390 ft 429 kts 298°
2026-05-01 12:14 50.20648 10.70281 38391 ft 429 kts 298°
2026-05-01 12:14 50.23298 10.61975 38391 ft 430 kts 298°
2026-05-01 12:15 50.25973 10.53616 38402 ft 430 kts 298°
2026-05-01 12:15 50.28661 10.45234 38403 ft 430 kts 298°
2026-05-01 12:16 50.31327 10.36922 38402 ft 429 kts 298°
2026-05-01 12:16 50.34015 10.28551 38405 ft 429 kts 298°
2026-05-01 12:17 50.36693 10.20197 38407 ft 429 kts 298°
2026-05-01 12:17 50.39377 10.11810 38404 ft 429 kts 298°
2026-05-01 12:18 50.42037 10.03485 38400 ft 429 kts 298°
2026-05-01 12:18 50.44709 9.95115 38400 ft 428 kts 298°
2026-05-01 12:19 50.47376 9.86747 38399 ft 428 kts 298°
2026-05-01 12:19 50.50028 9.78434 38391 ft 427 kts 299°
2026-05-01 12:20 50.52926 9.70335 38393 ft 426 kts 302°
2026-05-01 12:20 50.56030 9.62390 38392 ft 425 kts 303°
2026-05-01 12:21 50.59102 9.54435 38389 ft 425 kts 302°
2026-05-01 12:21 50.62114 9.46415 38385 ft 425 kts 301°
2026-05-01 12:22 50.65091 9.38414 38381 ft 425 kts 301°
2026-05-01 12:22 50.68101 9.30317 38378 ft 425 kts 301°
2026-05-01 12:23 50.71056 9.22247 38375 ft 425 kts 297°
2026-05-01 12:23 50.72976 9.13424 38369 ft 426 kts 286°
2026-05-01 12:24 50.74538 9.04456 38370 ft 427 kts 286°
2026-05-01 12:24 50.76117 8.95418 38366 ft 427 kts 287°
2026-05-01 12:25 50.78468 8.81844 38368 ft 427 kts 286°
2026-05-01 12:26 50.80019 8.72818 38366 ft 426 kts 286°
2026-05-01 12:26 50.82335 8.59206 38367 ft 426 kts 285°
2026-05-01 12:27 50.84629 8.45666 38366 ft 426 kts 285°
2026-05-01 12:28 50.86920 8.32042 38365 ft 425 kts 285°
2026-05-01 12:29 50.89182 8.18483 38361 ft 425 kts 285°
2026-05-01 12:29 50.91416 8.04924 38355 ft 425 kts 285°
2026-05-01 12:30 50.93750 7.91327 38354 ft 425 kts 287°
2026-05-01 12:31 50.95554 7.82465 38351 ft 424 kts 288°
2026-05-01 12:31 50.97387 7.73530 38340 ft 424 kts 288°
2026-05-01 12:32 50.99151 7.64645 38334 ft 424 kts 287°
2026-05-01 12:32 51.01476 7.52652 38334 ft 424 kts 287°
2026-05-01 12:33 51.03200 7.43727 38331 ft 424 kts 287°
2026-05-01 12:33 51.04920 7.34772 38328 ft 423 kts 287°
2026-05-01 12:34 51.06640 7.25805 38329 ft 423 kts 287°
2026-05-01 12:34 51.08335 7.16936 38329 ft 423 kts 287°
2026-05-01 12:35 51.10054 7.07918 38325 ft 423 kts 287°
2026-05-01 12:35 51.11750 6.98950 38310 ft 423 kts 286°
2026-05-01 12:36 51.13428 6.90021 38309 ft 423 kts 286°
2026-05-01 12:36 51.15105 6.81042 38308 ft 422 kts 286°
2026-05-01 12:37 51.16780 6.72069 38308 ft 422 kts 286°
2026-05-01 12:37 51.18451 6.63114 38305 ft 423 kts 286°
2026-05-01 12:38 51.20119 6.54100 38302 ft 423 kts 285°
2026-05-01 12:38 51.21773 6.45104 38301 ft 423 kts 285°
2026-05-01 12:39 51.23420 6.36084 38304 ft 423 kts 285°
2026-05-01 12:39 51.25042 6.27121 38301 ft 423 kts 285°
2026-05-01 12:40 51.26679 6.18099 38294 ft 423 kts 285°
2026-05-01 12:40 51.28302 6.09032 38286 ft 423 kts 284°
2026-05-01 12:41 51.29824 6.00005 38279 ft 423 kts 284°
2026-05-01 12:41 51.31323 5.90867 38278 ft 423 kts 284°
2026-05-01 12:42 51.32823 5.81750 38269 ft 424 kts 284°
2026-05-01 12:42 51.34318 5.72696 38268 ft 424 kts 283°
2026-05-01 12:43 51.35827 5.63548 38265 ft 424 kts 283°
2026-05-01 12:43 51.37325 5.54393 38267 ft 424 kts 283°
2026-05-01 12:44 51.38806 5.45291 38267 ft 425 kts 283°
2026-05-01 12:45 51.41764 5.26939 38268 ft 425 kts 283°
2026-05-01 12:45 51.43221 5.17805 38266 ft 425 kts 283°
2026-05-01 12:46 51.44681 5.08618 38263 ft 426 kts 282°
2026-05-01 12:46 51.46140 4.99393 38258 ft 426 kts 283°
2026-05-01 12:47 51.47595 4.90164 38251 ft 426 kts 282°
2026-05-01 12:47 51.49030 4.81009 38242 ft 427 kts 282°
2026-05-01 12:48 51.50469 4.71754 38238 ft 427 kts 282°
2026-05-01 12:48 51.51904 4.62470 38234 ft 428 kts 282°
2026-05-01 12:49 51.53328 4.53175 38237 ft 428 kts 282°
2026-05-01 12:49 51.54739 4.43927 38237 ft 429 kts 282°
2026-05-01 12:50 51.56151 4.34622 38240 ft 429 kts 282°
2026-05-01 12:50 51.57569 4.25270 38239 ft 429 kts 282°
2026-05-01 12:51 51.58976 4.15929 38237 ft 430 kts 282°
2026-05-01 12:52 51.61055 4.01916 38237 ft 430 kts 282°
2026-05-01 12:52 51.63128 3.87856 38237 ft 431 kts 281°
2026-05-01 12:53 51.65187 3.73792 38242 ft 431 kts 281°
2026-05-01 12:54 51.66556 3.64362 38239 ft 432 kts 281°
2026-05-01 12:54 51.68594 3.50204 38248 ft 432 kts 281°
2026-05-01 12:55 51.70616 3.36106 38251 ft 432 kts 281°
2026-05-01 12:56 51.71939 3.26754 38250 ft 432 kts 280°
2026-05-01 12:56 51.72969 3.17331 38247 ft 429 kts 269°
2026-05-01 12:57 51.72808 3.11561 38250 ft 425 kts 259°
2026-05-01 12:57 51.71567 2.97395 38241 ft 425 kts 259°
2026-05-01 12:58 51.70740 2.87926 38237 ft 425 kts 259°